This is the latest recevied weather packets stored in our database for station/object VK3CG. If no packets are shown the sender has not sent any weather packets the latest 10 day(s).
| Time | Temp. | Humidity | Pressure | Rain* | Wind** | Luminosity | Snow |
|---|---|---|---|---|---|---|---|
| 1777951856 | 14.44° C | 53% | 1031.2 hPa | 0 mm | - | 798 W/m² | - |
| 1777950961 | 13.89° C | 56% | 1031 hPa | 0 mm | - | 756 W/m² | - |
| 1777950052 | 13.89° C | 55% | 1031.1 hPa | 0 mm | - | 227 W/m² | - |
| 1777949151 | 13.89° C | 55% | 1031.1 hPa | 0 mm | - | 209 W/m² | - |
| 1777948254 | 13.33° C | 56% | 1031.4 hPa | 0 mm | - | 258 W/m² | - |
| 1777947351 | 13.89° C | 55% | 1031.4 hPa | 0 mm | - | 188 W/m² | - |
| 1777946449 | 13.89° C | 55% | 1031.6 hPa | 0 mm | - | 334 W/m² | - |
| 1777945549 | 13.89° C | 55% | 1031.8 hPa | 0 mm | - | 302 W/m² | - |
| 1777944648 | 13.89° C | 55% | 1031.7 hPa | 0 mm | - | 227 W/m² | - |
| 1777943750 | 14.44° C | 56% | 1031.8 hPa | 0 mm | - | 362 W/m² | - |
| 1777941943 | 13.33° C | 60% | 1031.6 hPa | 0 mm | - | 710 W/m² | - |
| 1777941039 | 12.78° C | 62% | 1031.4 hPa | 0 mm | - | 526 W/m² | - |
| 1777940146 | 11.67° C | 66% | 1031.3 hPa | 0 mm | - | 501 W/m² | - |
| 1777939238 | 10.56° C | 67% | 1031.3 hPa | 0 mm | - | 439 W/m² | - |
| 1777938327 | 10.56° C | 68% | 1031.1 hPa | 0 mm | - | 272 W/m² | - |
| 1777937425 | 10.56° C | 68% | 1031.2 hPa | 0 mm | - | 56 W/m² | - |
| 1777936530 | 10.56° C | 68% | 1031.2 hPa | 0.25 mm | - | 121 W/m² | - |
| 1777935620 | 10.56° C | 68% | 1030.9 hPa | 0.25 mm | - | 40 W/m² | - |
| 1777934723 | 10° C | 68% | 1030.7 hPa | 0.51 mm | - | 100 W/m² | - |
| 1777933818 | 10° C | 68% | 1030.5 hPa | 0.51 mm | - | 81 W/m² | - |
| 1777932914 | 10° C | 67% | 1030.4 hPa | 0.51 mm | - | 44 W/m² | - |
| 1777932017 | 10° C | 67% | 1030.1 hPa | 0.51 mm | - | 35 W/m² | - |
| 1777931110 | 9.44° C | 67% | 1029.9 hPa | 0.25 mm | - | 25 W/m² | - |
| 1777930210 | 9.44° C | 67% | 1029.5 hPa | 0.25 mm | - | 21 W/m² | - |
| 1777929306 | 9.44° C | 67% | 1029.3 hPa | 0 mm | - | 16 W/m² | - |
* Rain latest hour (hover to see other rain measurements)
** Current wind speed in m/s (hover to see current wind gust speed)